Showing default

ICEYE-X5, 44389

Orbit data source: Space-Track

ICEYE-X5, 44389 is a payload satellite owned by ICEYE (FI) in SSO that was launched on Fri, 05 Jul 2019 UTC via a SOYUZ-2-1B launch vehicle from the Vostochny Cosmodrome (VOSTO). Payload-class satellites include a variety of spacecraft equipped with specific instruments for various scientific and technological missions. These include communications satellites like Starlink; space stations such as the ISS; scientific satellites like the Hubble; Earth observation satellites from companies like Planet Labs, Umbra, and HawkEye 360; GPS; miniature CubeSats for education and research; and military/defense satellites.

Loading next visibility...
Identifier
44389, 2019-038C
Orbit
SSO
Country
Flag of FIFI / FIN
Related business
Manufacturer
ICEYE
Mission
Non-operational Commercial Radar Imaging
Bus & Motor
ICEYE, Unknown motor
Mass
80 kg wet, 80 kg dry
Launch date (UTC)
2019-07-05 (6 years ago)
Launch vehicle
SOYUZ-2-1B
Launch site
Vostochny Cosmodrome (VOSTO)
Object type
Payload
Rocket body
Debris
Shape & HBR
Box + 1 Pan, 1.6 m
Radar Cross Section
1.837 m², Large (>1 m²)

Expand to show TLE details & history
Last TLE update: 18 hours ago

TLE from 18 hours ago
0 ICEYE-X5
1 44389U 19038C   25242.29076832  .00027864  00000-0  82944-3 0  9998
2 44389  97.9119 267.2299 0009565 202.7211 157.3609 15.34639485338062
Epoch: 2025-08-30T06:58Z
TLE epoch observation values (Epoch: 2025-08-30T06:58:42.382Z)
Latitude
Longitude
-176.17387°
Altitude
471.127 km
Speed
7.627 km/s
True Right ascension
17h 48m 55s
True Declination
0° 00' 00"
Sunlit
Object was in daylight at epoch
Visualization orbit readout
Latitude
Unknown
Longitude
Unknown
Altitude
Unknown
Speed
Unknown
Apparent Right ascension
Unknown
Apparent Declination
Unknown
Sunlit
N/A
Visualization observer readout
Local Sidereal Time
16:54:19
Azimuth
Unknown
Elevation
Unknown
Doppler factor
Unknown
Orbital elements
Apogee altitude
465.5 km
Perigee altitude
452.421 km
Semi-major axis
6,837.097 km
Eccentricity
0.00096
Inclination
97.9119°
RAAN
267.2299°
Arg. of periapsis
202.7211°
True anomaly
157.40304°
Mean anomaly
157.3609°
Eccentric anomaly
157.38198°
Mean motion
3.83915 °/min
Orbital period
93.77 mins
BSTAR
0.00082944
Loading maneuver chart data...
Computing Atmospheric mass density...

Documentation

Showing up to 5 results
|